User: anonymous   Login
Location: Pic du Midi - T1M
(42.9366°N, 0.1426°E)
Time: 12:14:48
(UTC+01:00)
Language:

UKube-1 - Orbit

View from above orbital plane
View from above orbital plane
View from above satellite
View from above satellite

Ground track
Ground track

The orbit data is extracted from the following two-line orbital elements,

1 40074U 14037F   21263.14214098  .00000454  00000-0  60767-4 0  9996
2 40074  98.4189 124.2411 0005599  77.7481 282.4352 14.84635219389956
Epoch (UTC): 20 September 2021 03:24:40
Eccentricity: 0.0005599
inclination: 98.4189°
perigee height: 611 km
apogee height: 618 km
right ascension of ascending node: 124.2411°
argument of perigee: 77.7481°
revolutions per day: 14.84635219
mean anomaly at epoch: 282.4352°
orbit number at epoch: 38995

The dashed part of the orbit path shows where the satellite is in the earth's shadow,  

DLR